TIANMU-1 04

Last updated on Wed Sep 23 2026 00:03:10 GMT+0000 (Coordinated Universal Time)

1 55974U 23039B 26265.57277796 .00011984 00000+0 21178-3 0 9992 2 55974 97.5193 82.7476 0004882 90.6113 269.5698 15.50492229195922
UTC large
Height (km)
Speed (km/s)
/
Latitude / Longitude
Inclination (degrees)
Orbital Period (minutes)
Azimuth
Elevation
Range (km)
Doppler Factor

Next 0 passes for location: London (51.5072 / 0.1276)

No passes found over London.
TIANMU-1 04